Location: Archemont
(49.1579°N, 1.7598°E)
Time: 10:21:48
(UTC+00:00)

Cosmos 2360 Rocket - Pass Details

Date: 03 February 2023
Orbit: 832 x 846 km, 71.0° (Epoch: 28 March)

Event Time Altitude Azimuth Distance (km) Brightness Sun altitude
Rises 19:46:24 0° 231° (SW) 3,380 5.9 -28.6°
Reaches altitude 10° 19:48:59 10° 239° (WSW) 2,451 5.2 -29.0°
Maximum altitude 19:54:16 40° 308° (NW) 1,216 3.3 -29.8°
Enters shadow 19:57:02 25° 2° (N) 1,656 3.7 -30.3°
